GMT,Max TemperatureF,Mean TemperatureF,Min TemperatureF,Max Dew PointF,MeanDew PointF,Min DewpointF,Max Humidity, Mean Humidity, Min Humidity, Max Sea Level PressureIn, Mean Sea Level PressureIn, Min Sea Level PressureIn, Max VisibilityMiles, Mean VisibilityMiles, Min VisibilityMiles, Max Wind SpeedMPH, Mean Wind SpeedMPH, Max Gust SpeedMPH,PrecipitationIn, CloudCover, Events, WindDirDegrees
2013-10-1,62,56,50,55,50,46,94,82,68,29.80,29.79,29.77,6,5,3,14,8,,0.00,6,,94
2013-10-2,68,62,55,61,56,50,100,88,77,29.83,29.80,29.74,6,5,2,13,11,,0.00,7,Rain,129
2013-10-3,64,60,57,63,59,57,100,94,88,29.83,29.73,29.62,6,4,0,16,10,22,0.00,6,Fog-Rain,139
2013-10-4,66,62,57,63,59,54,100,93,82,29.92,29.73,29.59,6,5,2,15,9,,0.00,6,Rain,208
2013-10-5,62,58,53,55,53,48,100,82,59,30.24,30.11,29.95,6,6,6,13,6,,0.00,6,,273
2013-10-6,66,56,46,54,51,46,100,84,60,30.27,30.25,30.24,6,6,6,12,5,,0.00,2,Fog,216
2013-10-7,66,57,48,59,55,48,100,89,73,30.27,30.23,30.21,6,5,1,9,6,,0.00,5,,198
2013-10-8,69,61,53,59,55,50,100,84,60,30.27,30.22,30.18,6,6,6,12,8,,0.00,4,,238
2013-10-9,59,52,46,52,46,39,88,78,59,30.24,30.11,30.01,6,6,6,21,9,32,0.00,5,Rain,286
2013-10-10,51,46,41,43,38,34,87,71,62,30.21,30.15,30.04,6,6,6,21,16,,0.00,5,Rain,330
2013-10-11,55,50,44,52,47,37,100,90,76,30.21,30.18,30.12,6,5,1,18,14,28,0.00,7,Rain,4
2013-10-12,57,52,48,54,51,48,100,97,88,30.21,30.12,30.04,6,4,1,16,13,,0.00,7,Rain,13
2013-10-13,51,50,48,50,49,45,100,94,87,30.04,29.89,29.80,6,5,3,15,11,,0.00,6,Rain,332
2013-10-14,50,47,44,48,46,43,100,96,87,29.77,29.73,29.68,6,5,2,17,13,,0.00,6,Rain,320
2013-10-15,55,48,42,52,47,43,100,94,82,29.98,29.85,29.77,6,5,2,9,7,,0.00,5,,314
2013-10-16,59,48,37,55,47,37,100,90,72,29.98,29.76,29.59,6,4,0,17,7,26,0.00,5,Fog-Rain,165
2013-10-17,62,56,50,55,51,48,100,86,68,29.98,29.88,29.71,6,6,3,16,10,,0.00,3,Rain,232
2013-10-18,59,52,44,55,53,45,100,96,88,29.98,29.90,29.74,6,4,0,14,7,,0.00,5,Fog-Rain,134
2013-10-19,64,58,51,59,55,50,100,95,77,29.71,29.61,29.56,6,5,1,17,10,,0.00,5,Rain,168
2013-10-20,62,56,51,55,53,50,100,92,72,29.65,29.58,29.53,6,6,4,15,10,24,0.00,5,Rain,172
2013-10-21,62,58,53,59,56,52,100,95,88,29.65,29.57,29.50,6,5,3,18,11,28,0.00,6,Rain,179
2013-10-22,62,58,55,59,57,54,100,93,88,29.50,29.34,29.24,6,6,4,17,13,,0.00,5,Rain-Thunderstorm,166
2013-10-23,59,50,42,55,48,41,100,81,59,29.80,29.42,29.15,6,6,4,21,12,32,0.00,5,Rain,218
2013-10-24,59,50,42,54,48,41,100,88,77,29.95,29.88,29.80,6,6,6,13,8,,0.00,4,,153
2013-10-25,64,58,53,59,55,52,100,88,72,29.80,29.59,29.53,6,6,3,20,12,33,0.00,6,Rain,168
2013-10-26,60,56,51,55,53,48,100,85,72,29.62,29.53,29.39,6,6,4,20,13,30,0.00,5,Rain,199
2013-10-27,57,52,48,52,49,46,100,87,72,29.39,29.30,29.24,6,6,4,22,12,36,0.00,4,Rain,201
2013-10-28,53,50,46,50,46,43,100,90,76,29.50,29.23,28.88,6,6,2,18,10,24,0.00,5,Rain,235
2013-10-29,51,46,42,45,42,39,93,82,62,30.01,29.80,29.53,6,6,6,17,11,,0.00,3,Rain,247
2013-10-30,55,48,41,52,44,37,94,84,67,30.09,30.03,29.95,6,6,3,17,10,,0.00,5,Rain,207
2013-10-31,53,50,46,52,49,46,100,94,88,29.98,29.94,29.86,6,6,4,12,7,22,0.00,4,Rain,203